Temp
-10 -10 -10 -9 -9 -9 -9 -8 -8 -8 -8 -8 -8 -8 -8 -8 -8 -8 -8 -8 -8 -8 -8 -8 -8 -8 -8 -8 -8 -9 -9 -9 -9 -9 -9 -10 -10 -10 -10 -10 -10 -10 -10 -10 -10
-11 -10 -10 -10 -10 -9 -9 -9 -9 -9 -8 -8 -8 -8 -8 -8 -8 -8 -8 -8 -8 -8 -8 -8 -8 -8 -8 -8 -9 -9 -9 -9 -9 -9 -9 -10 -10 -10 -10 -10 -10 -10 -10 -10 -10
-11 -11 -11 -10 -10 -10 -9 -9 -9 -9 -9 -8 -8 -8 -8 -8 -8 -8 -8 -8 -8 -8 -8 -8 -8 -8 -8 -8 -8 -9 -9 -9 -9 -9 -10 -10 -10 -10 -10 -10 -10 -10 -10 -11 -11
-11 -11 -11 -11 -10 -10 -10 -10 -9 -9 -9 -9 -8 -9 -8 -8 -8 -8 -8 -8 -8 -8 -8 -8 -8 -8 -8 -8 -9 -9 -9 -9 -9 -9 -10 -10 -10 -10 -10 -10 -10 -11 -10 -10 -11
-11 -11 -11 -11 -11 -11 -11 -10 -10 -10 -10 -9 -9 -9 -9 -9 -8 -8 -8 -8 -8 -8 -8 -8 -8 -8 -9 -9 -9 -9 -9 -9 -9 -10 -10 -10 -10 -10 -10 -10 -10 -10 -10 -11 -11
-12 -12 -11 -11 -11 -11 -11 -11 -10 -10 -10 -10 -9 -9 -9 -9 -9 -8 -8 -8 -8 -8 -8 -8 -9 -9 -9 -9 -9 -9 -9 -9 -10 -10 -10 -10 -10 -11 -10 -10 -10 -10 -11 -10 -11
-12 -12 -12 -11 -11 -11 -11 -11 -11 -10 -11 -10 -10 -9 -9 -9 -9 -9 -9 -9 -9 -9 -9 -9 -9 -9 -9 -9 -9 -10 -10 -10 -10 -10 -10 -10 -10 -11 -11 -10 -10 -11 -11 -10 -11
-12 -12 -12 -12 -12 -11 -11 -11 -11 -10 -11 -10 -10 -10 -9 -9 -9 -9 -9 -9 -9 -9 -9 -9 -9 -9 -9 -9 -9 -10 -10 -10 -10 -10 -10 -10 -10 -11 -11 -10 -11 -11 -10 -11 -11
-13 -13 -13 -13 -12 -12 -12 -11 -11 -11 -11 -11 -10 -10 -10 -10 -10 -9 -9 -9 -9 -9 -9 -9 -9 -9 -9 -10 -10 -10 -10 -10 -10 -10 -10 -11 -11 -11 -11 -10 -11 -11 -11 -11 -11
-13 -13 -13 -14 -13 -13 -12 -12 -12 -11 -11 -11 -11 -10 -10 -10 -10 -10 -10 -10 -9 -9 -9 -9 -10 -10 -10 -10 -10 -10 -10 -10 -11 -11 -11 -11 -11 -12 -11 -11 -11 -11 -11 -11 -11
-16 -16 -15 -14 -13 -13 -13 -13 -13 -12 -12 -11 -11 -11 -10 -10 -10 -10 -10 -10 -10 -10 -10 -10 -10 -10 -11 -10 -10 -10 -11 -11 -11 -11 -11 -11 -11 -12 -11 -11 -11 -11 -11 -11 -11
-16 -16 -16 -16 -15 -14 -14 -13 -13 -13 -13 -12 -12 -11 -11 -11 -11 -11 -11 -10 -10 -10 -10 -10 -10 -11 -11 -11 -11 -11 -11 -11 -11 -11 -11 -11 -11 -12 -12 -11 -11 -11 -11 -11 -11
-16 -16 -16 -16 -16 -15 -15 -15 -14 -14 -13 -13 -12 -12 -12 -12 -11 -11 -11 -11 -11 -11 -11 -11 -11 -11 -11 -11 -11 -11 -11 -11 -11 -12 -11 -11 -12 -12 -12 -12 -11 -11 -11 -11 -11
-16 -16 -16 -17 -16 -16 -16 -16 -16 -15 -15 -14 -14 -12 -12 -12 -12 -12 -12 -12 -12 -11 -12 -11 -11 -12 -12 -12 -12 -12 -12 -12 -11 -12 -12 -12 -12 -12 -12 -12 -12 -12 -11 -11 -11
-16 -16 -17 -17 -18 -17 -16 -17 -17 -17 -17 -15 -14 -13 -13 -13 -12 -13 -13 -12 -12 -12 -12 -12 -12 -12 -12 -12 -12 -12 -12 -12 -12 -12 -12 -12 -12 -12 -12 -12 -12 -12 -12 -12 -12
-18 -17 -17 -17 -18 -18 -17 -17 -17 -17 -17 -15 -14 -14 -14 -14 -14 -13 -13 -13 -13 -12 -12 -12 -12 -12 -12 -13 -13 -13 -13 -13 -12 -12 -12 -12 -13 -12 -13 -13 -12 -12 -12 -12 -12
-19 -18 -18 -18 -18 -19 -17 -18 -18 -17 -15 -15 -15 -15 -14 -14 -15 -14 -14 -14 -13 -13 -13 -13 -12 -13 -13 -13 -13 -13 -13 -13 -12 -12 -12 -13 -13 -13 -13 -13 -13 -13 -13 -12 -12
-20 -20 -19 -19 -19 -18 -18 -19 -19 -17 -16 -15 -15 -15 -15 -15 -15 -14 -14 -14 -14 -13 -13 -13 -13 -13 -13 -13 -13 -13 -13 -13 -13 -13 -13 -13 -13 -13 -13 -13 -13 -13 -13 -13 -12
-20 -20 -20 -20 -20 -19 -19 -19 -17 -17 -16 -16 -16 -16 -16 -15 -15 -15 -15 -14 -14 -14 -14 -14 -13 -13 -13 -13 -14 -13 -13 -14 -13 -13 -12 -12 -13 -13 -13 -13 -14 -13 -13 -13 -13
-20 -20 -20 -20 -20 -20 -20 -19 -18 -17 -17 -17 -16 -16 -16 -16 -16 -15 -15 -14 -15 -14 -14 -14 -14 -13 -13 -13 -13 -13 -13 -14 -14 -13 -12 -12 -13 -13 -13 -13 -14 -14 -14 -14 -14
-21 -20 -20 -21 -21 -21 -20 -19 -18 -18 -18 -17 -17 -17 -16 -17 -17 -16 -16 -15 -15 -15 -15 -15 -14 -14 -14 -14 -13 -13 -13 -14 -14 -13 -13 -12 -13 -14 -14 -14 -14 -14 -14 -14 -14
-21 -20 -20 -21 -21 -20 -19 -19 -19 -19 -19 -18 -18 -18 -18 -17 -17 -17 -17 -16 -16 -16 -16 -16 -15 -14 -14 -14 -14 -14 -14 -14 -14 -13 -13 -12 -13 -15 -14 -14 -15 -14 -14 -15 -14
-21 -21 -21 -22 -21 -20 -19 -19 -20 -20 -20 -19 -19 -19 -18 -18 -18 -18 -17 -17 -17 -17 -17 -17 -16 -16 -15 -15 -15 -15 -14 -14 -14 -14 -13 -13 -12 -14 -15 -15 -15 -15 -15 -15 -14
-22 -21 -21 -21 -20 -20 -19 -19 -20 -20 -20 -20 -20 -20 -20 -20 -19 -19 -19 -19 -19 -18 -18 -17 -17 -16 -16 -16 -16 -16 -15 -15 -15 -14 -13 -13 -13 -14 -16 -16 -16 -16 -15 -15 -15
-22 -21 -20 -20 -20 -20 -20 -19 -20 -21 -21 -21 -20 -20 -20 -20 -20 -20 -20 -20 -20 -20 -19 -19 -18 -18 -17 -17 -17 -16 -16 -16 -15 -15 -14 -13 -13 -13 -15 -17 -16 -16 -16 -16 -15
-22 -20 -20 -21 -21 -21 -21 -20 -20 -20 -21 -21 -21 -21 -21 -21 -21 -22 -21 -21 -21 -20 -20 -19 -19 -19 -18 -18 -18 -17 -17 -16 -16 -15 -15 -15 -13 -15 -16 -15 -15 -16 -17 -17 -16
-22 -21 -21 -21 -21 -21 -20 -21 -21 -21 -21 -21 -21 -22 -22 -21 -22 -21 -21 -21 -21 -21 -21 -20 -20 -19 -19 -19 -18 -17 -17 -17 -17 -16 -16 -15 -15 -16 -16 -16 -16 -15 -16 -16 -16
Height
5762 5764 5767 5770 5773 5777 5778 5781 5785 5788 5791 5793 5796 5797 5799 5801 5803 5805 5806 5808 5808 5808 5809 5810 5810 5810 5810 5809 5809 5807 5808 5807 5807 5806 5806 5805 5803 5802 5800 5798 5796 5796 5793 5792 5791
5755 5757 5761 5764 5767 5771 5773 5775 5778 5782 5786 5788 5792 5793 5795 5796 5800 5802 5805 5805 5806 5806 5807 5807 5807 5808 5807 5806 5806 5805 5805 5803 5803 5803 5803 5802 5800 5799 5797 5793 5792 5792 5790 5789 5787
5747 5751 5754 5757 5760 5764 5768 5770 5773 5775 5780 5783 5786 5789 5791 5793 5796 5798 5800 5801 5803 5804 5804 5805 5804 5805 5804 5803 5803 5803 5802 5800 5800 5799 5799 5798 5797 5795 5793 5790 5789 5787 5786 5785 5784
5740 5743 5747 5750 5754 5758 5760 5764 5768 5770 5773 5776 5781 5784 5786 5788 5792 5793 5795 5797 5799 5800 5801 5801 5801 5802 5801 5801 5799 5799 5798 5798 5796 5796 5795 5794 5793 5792 5789 5787 5785 5783 5781 5780 5779
5732 5735 5739 5743 5747 5751 5754 5756 5762 5764 5768 5770 5774 5778 5782 5783 5786 5788 5791 5792 5794 5795 5796 5798 5798 5798 5797 5797 5796 5796 5794 5793 5793 5791 5792 5791 5788 5788 5785 5783 5781 5780 5777 5776 5774
5723 5726 5731 5735 5739 5743 5747 5749 5754 5757 5761 5764 5767 5772 5775 5778 5779 5782 5785 5787 5789 5791 5791 5793 5794 5794 5793 5793 5792 5792 5791 5789 5788 5786 5788 5787 5785 5782 5782 5779 5777 5775 5773 5771 5770
5712 5717 5722 5726 5729 5734 5738 5742 5745 5749 5754 5757 5759 5764 5768 5772 5773 5776 5779 5781 5783 5785 5787 5787 5788 5789 5789 5788 5787 5786 5787 5785 5783 5782 5783 5782 5783 5775 5778 5775 5774 5771 5769 5767 5766
5702 5707 5711 5715 5720 5725 5728 5732 5737 5741 5746 5750 5753 5756 5760 5764 5767 5769 5771 5774 5776 5779 5781 5782 5782 5783 5784 5784 5782 5781 5781 5781 5778 5777 5776 5777 5781 5769 5771 5771 5769 5766 5764 5763 5762
5689 5696 5700 5705 5709 5714 5718 5723 5726 5732 5736 5741 5745 5749 5752 5755 5759 5762 5765 5766 5769 5771 5773 5775 5776 5777 5779 5779 5777 5777 5775 5776 5774 5772 5772 5772 5776 5767 5764 5768 5764 5762 5760 5758 5758
5677 5683 5689 5693 5698 5703 5707 5711 5716 5721 5726 5730 5735 5740 5744 5747 5749 5752 5756 5758 5761 5763 5766 5768 5769 5771 5774 5771 5770 5768 5770 5771 5769 5768 5767 5767 5770 5765 5759 5763 5760 5757 5756 5754 5753
5666 5671 5675 5679 5685 5690 5697 5701 5707 5711 5715 5720 5725 5728 5733 5736 5740 5743 5746 5749 5752 5755 5757 5759 5761 5766 5763 5762 5763 5764 5764 5764 5764 5761 5761 5761 5764 5761 5756 5756 5755 5754 5752 5750 5749
5656 5662 5666 5669 5671 5676 5682 5688 5693 5699 5704 5707 5712 5717 5722 5725 5729 5734 5737 5741 5743 5745 5748 5752 5755 5754 5755 5757 5757 5757 5757 5759 5757 5755 5755 5756 5760 5755 5753 5753 5751 5750 5748 5746 5745
5644 5650 5655 5659 5662 5666 5670 5675 5679 5684 5689 5697 5700 5706 5711 5715 5719 5724 5727 5730 5732 5736 5738 5741 5745 5746 5747 5748 5749 5750 5751 5752 5751 5750 5749 5750 5754 5754 5749 5748 5747 5745 5744 5742 5741
5632 5638 5643 5647 5652 5656 5660 5663 5666 5671 5675 5684 5688 5693 5699 5703 5706 5712 5714 5720 5723 5726 5728 5731 5734 5738 5738 5740 5741 5742 5744 5744 5744 5744 5744 5746 5745 5751 5746 5745 5743 5741 5740 5738 5737
5617 5624 5631 5637 5642 5644 5650 5653 5656 5662 5662 5671 5678 5684 5687 5692 5698 5702 5705 5708 5712 5715 5719 5722 5724 5727 5729 5731 5732 5735 5736 5737 5737 5736 5736 5742 5738 5747 5743 5741 5740 5738 5737 5736 5735
5601 5610 5617 5623 5627 5634 5635 5641 5645 5650 5650 5658 5665 5673 5677 5681 5686 5689 5694 5698 5702 5704 5708 5711 5714 5718 5720 5722 5724 5727 5729 5729 5728 5729 5727 5737 5734 5741 5738 5737 5736 5735 5734 5733 5732
5586 5593 5601 5610 5618 5623 5626 5627 5632 5633 5647 5650 5655 5661 5666 5671 5676 5680 5684 5687 5689 5693 5698 5703 5705 5708 5711 5713 5716 5719 5721 5721 5721 5721 5722 5728 5727 5736 5734 5733 5732 5731 5730 5730 5729
5572 5579 5586 5594 5603 5607 5610 5612 5614 5628 5631 5640 5644 5648 5655 5661 5666 5670 5673 5677 5680 5684 5689 5691 5695 5698 5701 5706 5709 5711 5712 5714 5712 5714 5716 5718 5719 5731 5729 5729 5727 5726 5726 5727 5726
5558 5564 5572 5579 5585 5589 5592 5591 5602 5617 5621 5628 5633 5637 5644 5650 5656 5660 5664 5668 5671 5674 5678 5680 5683 5689 5692 5696 5699 5702 5704 5708 5707 5707 5707 5709 5714 5725 5724 5723 5722 5722 5721 5722 5721
5546 5552 5560 5565 5570 5573 5574 5581 5595 5602 5610 5614 5619 5625 5632 5638 5644 5648 5652 5657 5661 5665 5665 5669 5674 5679 5682 5685 5688 5691 5697 5698 5700 5701 5701 5701 5705 5717 5719 5717 5718 5717 5716 5716 5716
5531 5537 5546 5550 5554 5555 5562 5577 5584 5588 5595 5602 5606 5611 5618 5626 5631 5636 5640 5646 5651 5653 5656 5660 5665 5671 5673 5676 5678 5681 5684 5688 5691 5694 5693 5695 5698 5703 5711 5712 5713 5710 5710 5711 5711
5517 5523 5533 5537 5540 5546 5558 5568 5572 5576 5582 5588 5595 5601 5605 5610 5617 5623 5629 5633 5638 5642 5647 5650 5653 5657 5662 5665 5668 5671 5675 5677 5679 5686 5687 5687 5691 5693 5701 5705 5705 5704 5703 5704 5705
5503 5510 5518 5523 5529 5540 5547 5553 5558 5564 5571 5577 5582 5586 5592 5597 5604 5610 5616 5621 5625 5630 5634 5639 5643 5647 5651 5656 5657 5661 5665 5667 5669 5673 5676 5678 5681 5687 5692 5696 5698 5697 5697 5698 5700
5486 5494 5502 5509 5521 5529 5536 5541 5548 5554 5560 5565 5570 5576 5580 5585 5590 5596 5602 5608 5612 5617 5622 5627 5632 5637 5641 5644 5647 5650 5654 5656 5658 5661 5666 5672 5672 5679 5683 5686 5688 5690 5691 5691 5694
5470 5481 5491 5500 5510 5518 5524 5531 5538 5543 5550 5556 5561 5567 5572 5575 5581 5586 5591 5596 5601 5605 5610 5616 5622 5625 5627 5630 5634 5639 5643 5646 5649 5652 5654 5661 5665 5670 5674 5672 5675 5680 5682 5683 5685
5457 5470 5479 5491 5499 5506 5514 5522 5529 5536 5543 5547 5553 5558 5563 5567 5572 5578 5581 5584 5589 5595 5600 5605 5610 5613 5617 5618 5622 5628 5634 5636 5642 5646 5649 5649 5656 5660 5652 5655 5665 5669 5671 5674 5675
5443 5457 5467 5476 5486 5493 5503 5513 5521 5527 5533 5539 5544 5549 5552 5558 5562 5568 5573 5577 5582 5585 5590 5595 5599 5604 5608 5609 5611 5620 5628 5628 5631 5634 5635 5635 5645 5639 5639 5646 5651 5653 5656 5660 5665
Wind_Speed
39 37 36 37 39 40 39 38 36 35 33 31 30 28 24 21 19 15 14 12 10 9 10 10 13 15 16 18 18 19 17 19 19 19 18 19 20 21 22 22 20 20 23 23 23
39 39 38 37 37 38 39 38 38 37 36 34 33 30 27 24 21 18 17 14 12 10 10 11 12 15 17 19 19 20 19 21 20 21 20 21 22 22 22 25 24 21 23 23 24
40 40 40 40 38 39 38 38 38 37 37 35 35 32 29 25 23 22 19 17 16 15 12 12 13 15 17 19 21 21 22 23 23 22 21 22 23 24 24 27 24 23 23 24 25
44 42 41 40 40 40 40 39 40 38 38 37 36 34 32 27 26 24 22 19 18 17 17 17 16 18 20 21 21 22 24 24 26 24 23 23 23 23 26 25 24 24 24 25 25
47 46 44 42 41 41 40 40 41 39 39 38 37 37 34 31 29 28 25 21 20 19 19 19 19 21 23 24 24 22 25 25 26 27 26 24 25 23 27 26 23 23 24 25 26
50 49 48 46 44 43 42 40 40 38 40 40 39 39 37 35 32 31 28 24 23 22 21 22 23 23 24 26 26 26 25 26 26 29 27 25 26 27 26 26 23 22 22 25 26
54 53 53 50 48 48 45 43 42 41 40 40 38 38 37 35 34 34 32 30 28 27 26 25 26 27 26 29 28 28 26 28 28 29 28 27 24 31 26 26 24 22 22 24 23
60 58 56 53 52 52 50 48 46 45 43 42 40 39 38 38 36 37 37 35 34 33 30 30 29 30 30 32 32 29 30 29 29 30 29 28 19 34 29 26 24 24 23 22 21
62 61 59 58 56 56 54 53 51 50 49 47 44 43 42 41 40 40 40 39 39 36 35 35 34 33 32 34 35 32 33 30 30 31 31 29 20 31 33 27 23 24 22 22 20
65 67 63 59 59 59 57 56 55 54 53 51 49 48 46 45 44 43 42 42 42 41 39 38 39 36 33 38 40 38 33 31 29 31 32 31 21 26 34 28 23 24 23 22 21
47 47 53 55 59 62 62 60 59 58 56 56 54 52 51 50 47 47 46 45 44 43 42 43 42 37 40 43 42 40 35 32 31 33 32 31 25 25 31 30 24 22 23 22 20
52 51 51 51 56 54 60 60 61 62 61 58 58 56 56 54 52 50 49 49 48 47 46 47 44 44 45 44 43 40 37 32 32 33 35 30 23 26 30 28 24 22 22 21 20
57 55 54 55 51 52 54 57 55 56 62 59 60 60 58 57 57 55 54 54 52 52 49 51 51 48 47 45 41 41 37 35 35 34 35 33 25 21 28 26 22 20 20 20 20
64 60 59 56 55 55 53 49 49 53 57 57 54 59 60 59 60 60 60 57 56 55 53 54 53 48 45 42 40 40 37 37 37 37 36 33 31 17 25 22 20 20 20 18 18
64 63 61 57 50 58 55 55 54 50 55 57 60 57 56 57 58 54 52 53 54 52 49 50 48 45 42 41 41 41 38 38 38 39 40 31 35 16 23 22 18 18 17 16 17
60 64 60 56 63 52 59 62 59 57 57 53 55 53 54 51 52 52 50 50 50 48 47 48 46 44 42 40 42 42 39 39 40 41 44 32 33 18 21 20 18 18 17 16 17
55 58 58 60 56 54 40 56 56 62 56 54 52 50 48 50 49 48 48 48 49 47 45 44 44 43 41 42 42 40 38 41 43 43 43 35 35 20 22 21 19 19 18 16 16
52 54 56 57 60 64 58 60 67 65 63 60 57 50 48 49 46 44 46 47 47 46 43 45 44 45 46 43 43 41 42 42 45 44 43 40 40 22 24 22 22 22 20 18 17
45 51 53 53 58 65 69 73 71 65 66 63 58 57 56 52 50 49 48 43 44 46 48 46 45 45 46 45 43 43 42 41 43 45 45 44 40 25 24 24 23 23 22 20 19
51 47 50 53 54 59 63 67 66 67 65 67 65 62 57 57 56 52 49 48 49 47 46 48 48 46 40 46 47 46 43 43 43 45 47 47 44 29 24 25 24 22 24 23 19
54 52 47 51 53 57 59 58 59 60 60 63 65 65 64 58 57 57 55 53 49 47 49 51 50 47 45 44 43 46 47 47 45 47 47 47 47 39 27 25 25 23 24 24 22
56 56 51 50 53 54 54 50 52 54 55 56 57 60 63 62 57 56 55 54 53 52 48 46 48 49 48 48 49 48 44 46 49 48 49 50 49 40 31 28 31 28 25 26 25
58 58 56 54 53 47 45 49 52 48 47 49 52 54 55 56 56 56 56 55 52 51 52 51 52 50 49 48 46 47 48 47 47 47 49 52 51 45 36 32 31 35 34 32 31
61 61 60 59 54 49 45 44 45 48 47 46 48 49 50 50 51 53 54 54 51 51 51 50 51 51 51 51 49 46 45 46 48 50 49 46 49 50 39 32 34 35 36 37 32
63 61 61 58 56 54 51 47 42 43 45 46 46 42 42 42 43 45 48 48 52 50 48 49 47 48 49 50 49 49 48 48 49 48 50 47 46 45 46 36 38 36 39 40 37
65 61 59 56 56 55 55 50 44 39 37 40 42 41 40 37 36 35 41 41 41 45 46 46 48 48 48 48 49 48 46 48 46 45 48 46 42 35 39 44 43 42 40 42 43
69 65 60 58 57 58 55 51 46 42 40 37 37 36 38 38 38 38 40 37 37 38 44 43 41 39 41 45 47 46 40 40 42 41 43 45 41 38 38 34 34 43 46 46 44
Wind_Direction
232 232 231 231 229 230 226 225 226 227 227 223 225 221 217 218 221 218 223 231 241 260 271 281 289 289 291 291 290 288 289 286 287 288 295 303 312 319 312 302 293 294 292 289 286
233 231 231 231 230 230 230 227 226 227 228 226 225 221 220 216 219 220 230 234 243 254 269 280 288 293 292 289 289 288 287 282 285 288 292 298 306 317 313 301 298 293 291 286 284
232 233 231 230 230 231 231 230 228 225 227 227 225 223 220 217 219 223 228 234 244 252 260 276 285 290 293 293 293 293 288 289 286 286 287 291 301 313 314 302 298 290 292 289 290
233 232 232 231 230 231 230 230 230 227 226 225 226 226 222 218 221 225 226 232 243 251 257 267 282 288 290 292 292 291 290 289 286 288 286 288 297 311 310 308 295 291 288 291 291
233 232 232 231 231 232 231 230 231 229 229 225 225 227 226 223 222 227 231 236 243 252 259 266 278 287 290 291 290 290 288 290 289 287 287 289 294 305 305 307 297 291 289 290 291
235 234 233 232 232 232 233 230 231 230 230 228 225 227 228 228 226 226 231 240 250 254 257 263 271 281 288 289 290 286 287 288 288 287 287 288 295 300 306 308 299 292 289 289 292
237 235 234 233 232 233 232 232 231 231 231 229 226 227 229 231 230 229 234 245 252 254 259 264 270 278 285 289 288 283 284 289 289 286 287 287 298 298 308 312 300 292 289 289 293
240 238 236 234 234 234 234 233 233 233 234 233 231 228 230 232 233 235 239 244 249 253 255 261 268 274 282 286 286 283 279 284 286 287 285 285 293 297 305 314 302 292 293 293 292
237 239 238 238 236 234 235 235 235 234 235 236 235 235 233 235 236 239 243 246 249 251 253 258 265 270 278 283 284 282 275 278 285 285 284 285 290 292 301 314 300 293 295 292 290
234 234 238 239 238 238 237 237 237 237 237 237 237 237 238 238 240 241 243 246 249 250 254 259 264 271 278 279 276 274 275 275 279 282 284 285 286 290 299 309 296 292 292 290 294
235 238 235 234 241 241 241 240 240 239 239 239 239 239 238 239 240 242 242 244 246 250 255 258 263 271 268 273 277 277 271 268 275 280 283 282 284 284 299 306 301 290 286 286 287
235 239 243 248 237 236 239 241 243 244 243 241 241 240 241 240 241 243 244 245 248 251 254 259 262 264 269 274 274 271 267 267 267 277 283 283 281 285 295 302 301 291 287 284 285
234 236 241 241 247 245 237 235 238 242 244 242 243 243 242 244 244 244 246 247 248 253 256 260 262 262 266 268 268 266 264 263 267 273 281 282 279 279 290 302 299 292 289 283 280
237 237 240 245 244 244 249 245 241 240 243 240 241 243 244 246 246 246 247 249 252 255 257 258 260 262 262 261 261 259 259 260 265 270 277 278 282 274 287 298 298 292 292 286 282
237 238 241 243 247 246 241 246 246 249 249 245 240 243 244 245 248 247 248 249 252 255 255 257 256 256 256 256 255 256 256 260 262 268 275 275 280 272 280 290 294 293 294 290 288
235 236 236 232 239 247 253 245 244 247 247 246 244 242 244 246 246 247 247 248 250 250 251 252 251 250 250 250 251 252 254 257 259 264 269 273 277 275 279 285 288 291 294 293 293
236 234 231 233 231 236 219 245 249 246 244 245 247 247 243 245 246 248 248 246 246 246 246 248 248 247 247 246 246 248 253 256 259 262 268 270 271 278 276 281 281 284 291 294 298
235 235 231 230 225 219 226 239 241 246 246 244 246 245 246 245 246 248 247 247 250 248 247 245 245 246 246 248 246 247 249 252 260 262 264 266 268 272 270 278 276 278 283 289 294
234 234 235 231 230 229 230 231 240 242 245 248 250 252 251 249 250 250 250 248 244 244 244 246 245 246 247 244 244 244 249 253 255 258 263 268 270 265 268 267 270 274 277 282 286
233 233 232 232 232 233 234 235 239 243 242 246 246 248 248 249 251 250 250 249 247 245 244 245 246 245 247 247 246 246 248 249 250 257 260 266 272 266 261 263 270 271 272 274 280
231 232 231 230 231 233 235 240 240 243 243 242 244 245 247 247 247 248 249 249 248 247 246 247 247 246 247 248 249 244 246 246 247 249 257 264 270 271 256 258 266 266 266 270 274
232 231 230 231 231 237 240 240 240 239 241 243 244 245 247 248 247 248 249 248 246 245 245 244 246 247 247 247 249 253 252 249 249 250 254 257 261 266 264 253 255 260 260 266 268
231 232 229 230 233 235 240 240 240 238 239 239 241 240 241 244 245 245 245 245 245 245 244 245 247 248 249 249 248 249 253 256 256 253 253 255 260 255 258 254 255 258 258 260 263
229 229 229 229 232 234 235 240 240 238 238 239 239 240 241 242 241 242 241 241 243 242 242 242 245 248 249 250 249 248 248 249 252 253 256 257 259 256 254 249 252 256 259 263 260
229 231 231 232 232 232 234 235 236 239 237 238 240 241 242 244 245 243 242 240 238 240 242 243 243 245 246 249 250 250 250 248 250 253 254 258 259 263 259 241 243 246 255 260 262
230 231 233 233 231 232 234 236 238 237 236 236 237 238 239 241 242 238 241 243 245 245 246 247 246 246 248 250 250 249 251 254 256 258 259 262 257 270 262 256 248 241 244 254 260
228 229 230 230 230 231 232 233 233 236 236 236 234 233 236 236 238 237 225 228 236 239 240 242 244 244 248 251 252 252 252 256 256 257 261 258 255 253 259 264 258 240 239 243 249